Regional Weather Roundup
Issued by NWS

Home | Current Version | Previous Version | Graphics & Text | Print | Product List | Glossary On
Versions: 1 2 3 4 5 6 7 8 9 10 11 12 13 14 15 16 17 18 19 20 21 22 23 24 25 26 27 28 29 30 31 32 33 34 35 36 37 38 39 40 41 42 43 44 45 46 47 48 49 50
000
ASUS43 KIND 220500
RWRIN

WEATHER ROUNDUP FOR INDIANA
NATIONAL WEATHER SERVICE INDIANAPOLIS IN
100 AM EDT SUN OCT 22 2017

NOTE: "FAIR" INDICATES FEW OR NO CLOUDS BELOW 12,000 FEET WITH NO
SIGNIFICANT WEATHER AND/OR OBSTRUCTIONS TO VISIBILITY.

* - STATION DOES NOT REPORT WEATHER SUCH AS PRECIPITATION OR FOG.

+ - STATION NOT QUALITY CONTROLLED BY THE NATIONAL WEATHER SERVICE.
    USE DATA WITH CAUTION...ESPECIALLY DEWPOINT AND RELATIVE
    HUMIDITY OBSERVATIONS.

INZ001>003-010>013-019-020-220600-
NORTHWEST INDIANA

CITY           SKY/WX    TMP DP  RH WIND       PRES   REMARKS
MONTICELLO +   CLEAR     64  49  57 S10       30.07S

$$

LMZ046-743>745-220600-
SOUTHERN LAKE MICHIGAN

STATION/POSITION TIME  TEMP    WIND        PRES    WAVE
                       AIR SEA DIR/SP/G            HT
                 (UTC) (F)     (DEG/KT/KT) (MB)    (FT)
BURNS HARBOR     0440   67     180/ 14/ 21 1017.6S
MICHIGAN CITY    0430   67     160/ 14/ 17   N/A
5NW MICH CITY    0450   65 58  180/ 14/ 21   N/A     2

$$

INZ004-005-014>016-021>024-220600-
NORTH CENTRAL INDIANA

CITY           SKY/WX    TMP DP  RH WIND       PRES   REMARKS
GOSHEN         CLEAR     62  47  57 S10       30.10F
PERU/GRISSOM   CLEAR     62  48  62 S12       30.10
SOUTH BEND     CLEAR     64  50  60 S9        30.08S

$$

INZ006>009-017-018-025>027-220600-
NORTHEAST INDIANA

CITY           SKY/WX    TMP DP  RH WIND       PRES   REMARKS
FORT WAYNE     PTCLDY    57  46  66 SE6       30.14F
KENDALLVILLE + CLEAR     60  47  60 S8        30.13S

$$

INZ028-029-035-036-043>045-051>053-220600-
WEST CENTRAL INDIANA

CITY           SKY/WX    TMP DP  RH WIND       PRES   REMARKS
LAFAYETTE      CLEAR     64  51  62 S7        30.07F
TERRE HAUTE    CLEAR     63  51  65 SE6       30.09F

$$

INZ030>032-037>040-046>048-054>057-064-065-220600-
CENTRAL INDIANA

CITY           SKY/WX    TMP DP  RH WIND       PRES   REMARKS
GREENWOOD *+   CLEAR     63  51  63 SE5       30.14F
INDIANAPOLIS   PTCLDY    61  50  67 SE8       30.12F
-EAGLE CREEK   CLEAR     62  49  62 SE3       30.12F
KOKOMO +       CLEAR     62  48  60 S13       30.12F
MT COMFORT *+  CLOUDY    59  52  77 SE6       30.14F
SHELBYVILLE    CLEAR     63  47  55 S10       30.13F

$$

INZ033-034-041-042-049-050-058-059-220600-
EAST CENTRAL INDIANA

CITY           SKY/WX    TMP DP  RH WIND       PRES   REMARKS
MUNCIE         CLEAR     63  46  54 S7        30.14F
RICHMOND +     CLEAR     54  45  71 S7        30.19F

$$

INZ060-061-067>069-081>083-085>088-220600-
SOUTHWEST INDIANA

CITY           SKY/WX    TMP DP  RH WIND       PRES   REMARKS
EVANSVILLE     CLEAR     64  54  69 SE5       30.11F
HUNTINGBURG +  CLEAR     64  52  64 S7        30.13F

$$

INZ062-063-066-070>080-084-089>092-220600-
SOUTH CENTRAL AND SOUTHEAST INDIANA

CITY           SKY/WX    TMP DP  RH WIND       PRES   REMARKS
BLOOMINGTON    CLOUDY    64  48  56 SE9       30.12F
MADISON *+     PTCLDY    57  46  67 SE3       30.19F
SEYMOUR +      CLEAR     57  48  72 SE6       30.15F

$$





USA.gov is the U.S. government's official web portal to all federal, state and local government web resources and services.